User: anonymous   Login
Location: Unspecified
(0.0000°N, 0.0000°E)
Time: 01:41:32
(UTC+00:00)
Language:

PANSAT - Orbit

View from above orbital plane
View from above orbital plane
View from above satellite
View from above satellite

Ground track
Ground track

The orbit data is extracted from the following two-line orbital elements,

1 25520U 98064B   20328.66480768  .00001261  00000-0  35091-4 0  9993
2 25520  28.4390  64.6143 0004679 259.6141 100.3927 15.29567200226649
Epoch (UTC): 23 November 2020 15:57:19
Eccentricity: 0.0004679
inclination: 28.4390°
perigee height: 474 km
apogee height: 480 km
right ascension of ascending node: 64.6143°
argument of perigee: 259.6141°
revolutions per day: 15.29567200
mean anomaly at epoch: 100.3927°
orbit number at epoch: 22664

The dashed part of the orbit path shows where the satellite is in the earth's shadow,  

DLR